Erzincan, Turkey

12:17 AM +03 on October 19, 2017 (GMT +0300)
Erzincan

Weather History for LTCD - October, 2013

Change the Weather History Date:

Saturday, October 26, 2013

  Actual Average Record
Temperature  
Mean Temperature 46 °F -  
Max Temperature 65 °F 54 °F - ()
Min Temperature 28 °F 34 °F - ()
Degree Days  
Heating Degree Days 18    
Moisture  
Dew Point 30 °F    
Average Humidity 55    
Maximum Humidity 93    
Minimum Humidity 17    
Precipitation  
Precipitation 0.00 in 0.05 in - ()
Sea Level Pressure  
Sea Level Pressure 30.10 in    
Wind  
Wind Speed 4 mph ()    
Max Wind Speed 23 mph    
Max Gust Speed 33 mph    
Visibility 6.7 miles    
Events      
T = Trace of Precipitation, MM = Missing Value Source: Averaged Metar Reports

Daily Weather History Graph

Daily Weather History Graph

Search for Another Location

Airport or City:

Trip Planner

Search our weather history database for the weather conditions in past years. The results will help you decide how hot, cold, wet, or windy it might be!

Date:

Astronomy

Oct. 26, 2013 Rise Set
Actual Time 6:43 AM EEST 5:27 PM EEST
Civil Twilight 6:16 AM EEST 5:55 PM EEST
Nautical Twilight 5:44 AM EEST 6:26 PM EEST
Astronomical Twilight 5:13 AM EEST 6:57 PM EEST
Moon 11:23 PM EEST (10/26) 12:47 PM EEST (10/26)
Length of Visible Light 11h 38m
Length of Day
10h 43m
Waning Gibbous, 56% of the Moon is Illuminated
Oct 26
Waning Gibbous
Oct 27
Last Quarter
Nov 3
New
Nov 10
First Quarter
Nov 17
Full

Hourly Weather History & Observations

Time (EEST) Temp. Windchill Dew Point Humidity Pressure Visibility Wind Dir Wind Speed Gust Speed Precip Events Conditions
12:50 AM 35.6 °F - 32.0 °F 87% 30.15 in - NW 2.3 mph - N/A   Clear
1:50 AM 35.6 °F 32.8 °F 32.0 °F 87% 30.15 in - NW 3.5 mph - N/A   Clear
2:50 AM 33.8 °F - 30.2 °F 87% 30.15 in - Calm Calm - N/A   Clear
3:00 AM 34 °F - 29 °F 75%  in 6 mi Calm Calm - -  
3:50 AM 32.0 °F 28.7 °F 28.4 °F 87% 30.15 in - SE 3.5 mph - N/A   Clear
4:50 AM 30.2 °F - 28.4 °F 93% 30.15 in - Calm Calm - N/A   Clear
5:50 AM 30.2 °F - 28.4 °F 93% 30.15 in - Calm Calm - N/A   Clear
6:50 AM 28.4 °F - 26.6 °F 93% 30.15 in - Calm Calm - N/A   Clear
7:50 AM 33.8 °F - 32.0 °F 93% 30.15 in - Variable 1.2 mph - N/A   Clear
8:50 AM 42.8 °F - 33.8 °F 70% 30.15 in - Calm Calm - N/A   Clear
9:00 AM 43 °F - 34 °F 62%  in 6 mi Calm Calm - -  
9:50 AM 51.8 °F - 33.8 °F 50% 30.15 in - Calm Calm - N/A   Clear
10:50 AM 55.4 °F - 32.0 °F 41% 30.12 in - Variable 3.5 mph - N/A   Clear
11:50 AM 59.0 °F - 32.0 °F 36% 30.09 in - SSE 3.5 mph - N/A   Clear
12:50 PM 60.8 °F - 30.2 °F 31% 30.06 in - Variable 2.3 mph - N/A   Clear
1:50 PM 62.6 °F - 30.2 °F 30% 30.06 in - Variable 2.3 mph - N/A   Clear
2:50 PM 64.4 °F - 30.2 °F 28% 30.04 in 6.2 mi Calm Calm - N/A   Partly Cloudy
3:00 PM 64 °F - 30 °F 17%  in 6 mi Calm Calm - -   Scattered Clouds
3:50 PM 64.4 °F - 30.2 °F 28% 30.04 in 6.2 mi Variable 2.3 mph - N/A   Partly Cloudy
4:50 PM 62.6 °F - 28.4 °F 27% 30.01 in 6.2 mi North 9.2 mph - N/A   Partly Cloudy
5:50 PM 59.0 °F - 28.4 °F 31% 30.01 in 6.2 mi NNE 9.2 mph - N/A   Partly Cloudy
6:50 PM 55.4 °F - 30.2 °F 38% 30.04 in 6.2 mi WNW 13.8 mph - N/A   Partly Cloudy
7:50 PM 53.6 °F - 32.0 °F 44% 30.06 in 6.2 mi NNW 18.4 mph - N/A   Partly Cloudy
8:50 PM 51.8 °F - 28.4 °F 41% 30.09 in - NW 23.0 mph - N/A   Clear
9:00 PM 52 °F - 28 °F 27%  in 12 mi NW 23.0 mph - -  
9:50 PM 50.0 °F - 30.2 °F 47% 30.09 in - WNW 19.6 mph 33.4 mph N/A   Clear
10:50 PM 50.0 °F - 30.2 °F 47% 30.12 in - NW 6.9 mph - N/A   Clear
11:50 PM 46.4 °F 42.9 °F 32.0 °F 57% 30.12 in - NW 6.9 mph - N/A   Clear